Location: Clermont
(50.2608°N, 4.3172°E)
Time: 10:38:09
(UTC+00:00)

Cosmos 389 Rocket - Pass Details

Date: 13 August 2020
Orbit: 443 x 475 km, 81.1° (Epoch: 20 September)

Event Time Altitude Azimuth Distance (km) Brightness Sun altitude
Rises 19:40:32 0° 342° (NNW) 2,461 7.0 -5.9°
Reaches altitude 10° 19:42:39 10° 335° (NNW) 1,587 6.2 -6.2°
Maximum altitude 19:45:56 42° 264° (W) 659 3.7 -6.6°
Drops below altitude 10° 19:49:14 10° 192° (SSW) 1,588 5.0 -7.1°
Sets 19:51:22 0° 185° (S) 2,461 5.9 -7.4°
